Location: Caltech
(34.1382°N, 118.1253°W)
Time: 03:30:10
(UTC-08:00)

Daily predictions for brighter satellites

Satellite Brightness Start Highest point End
(mag) Time Altitude Azimuth Time Altitude Azimuth Time Altitude Azimuth
Milstar 3 Cent rocket 4.4 02:56:35 42° SSE 02:56:45 42° SSE 03:11:14 10° E
DELTA 2 R/B (1) 3.6 04:13:42 74° ENE 04:13:42 74° ENE 04:18:54 10° ESE
Lacrosse 4 Rocket 4.0 04:12:06 10° SSE 04:15:21 20° ESE 04:18:33 10° ENE
Cosmos 2369 Rocket 3.8 04:15:24 14° N 04:19:31 31° ENE 04:24:27 10° SE
Cosmos 1703 Rocket 4.5 04:21:03 35° NE 04:22:17 46° E 04:26:26 10° SSE
USA 229 DEB 3.7 04:22:03 60° W 04:22:47 63° WSW 04:30:01 10° SSE
Cosmos 2233 Rocket 3.9 04:18:14 19° N 04:22:47 81° E 04:28:55 10° S
USA 229 3.7 04:22:06 60° W 04:22:52 64° WSW 04:30:07 10° SSE
Cosmos 1869 Rocket 4.4 04:18:43 10° SSE 04:22:55 49° E 04:27:11 10° NNE
CZ-4B R/B 3.1 04:17:15 10° N 04:27:41 15° SSW 04:28:31 10° SSW
Meteor 1-28 Rocket 4.3 04:22:46 10° SE 04:26:18 41° ENE 04:26:33 40° ENE
Cosmos 968 Rocket 3.9 04:24:19 36° N 04:26:22 62° ENE 04:31:33 10° SSE
Atlas Centaur 2 3.6 04:28:58 32° SW 04:30:29 35° SSW 04:37:47 10° SE
OAO 1 Rocket 4.3 04:37:20 68° W 04:38:03 87° S 04:43:25 10° ESE
Okean-O 3.7 04:34:37 10° NNE 04:38:53 45° E 04:43:07 10° S
Landsat 4 4.5 04:36:01 10° SSE 04:39:36 50° ENE 04:40:53 33° NNE
Cosmos 1782 3.0 04:39:55 45° NNE 04:40:56 66° E 04:44:51 10° SSE
Intercosmos 25 4.3 04:38:20 20° N 04:40:59 57° E 04:46:34 10° SSE
Cosmos 1943 Rocket 3.9 04:37:07 10° N 04:42:07 31° ENE 04:47:03 10° ESE
COSMO-SKYMED 1 4.0 04:40:00 10° SE 04:43:57 36° ENE 04:47:55 10° N
Centaur D-1AR AC-48 4.0 04:48:51 11° SSW 04:49:54 11° S 04:51:21 10° SSE
ATLAS 5 CENTAUR R/B 2.0 04:54:41 44° NW 04:54:41 44° NW 04:59:10 10° NNE
Cosmos 1943 3.2 04:55:19 10° SW 05:00:54 58° WNW 05:06:31 10° NNE
Feng Yun 1-1 Rocket 4.3 04:55:03 10° NNE 05:01:01 90° ENE 05:06:53 10° SSW
Okean 1-7 2.9 05:00:16 13° N 05:04:08 80° W 05:08:26 10° S
Hubble Space Telescope 2.4 05:08:19 19° SW 05:09:39 22° SSW 05:12:53 10° SE
Genesis I 3.6 05:10:52 39° WNW 05:11:08 40° WNW 05:14:52 10° NNE
Cosmos 1862 3.1 05:09:58 10° SSW 05:13:54 69° W 05:17:52 10° N
IDEFIX/ARIANE 42P 2.6 05:11:45 10° NNE 05:16:57 84° ESE 05:22:08 10° SSW
CZ-2C R/B 3.0 05:12:12 10° NNE 05:17:17 62° E 05:22:11 10° S
Meteor 2-6 Rocket 4.3 05:14:58 10° NNW 05:20:48 61° W 05:26:39 10° S
Cosmos 1733 Rocket 3.3 05:22:28 10° S 05:26:46 73° E 05:31:07 10° N
Cosmos 2263 4.3 05:22:25 10° NNW 05:28:13 89° ENE 05:33:59 10° SSE
MTI 4.3 05:26:10 10° SSW 05:29:08 36° W 05:30:45 21° NW
Cosmos 1606 3.8 05:28:38 23° WNW 05:29:12 24° W 05:32:20 10° SW
Cosmos 1441 Rocket 3.2 05:27:12 10° NNW 05:30:51 51° W 05:34:27 10° S
Abrixas rocket 4.3 05:29:19 11° NNW 05:31:22 19° NNE 05:33:43 10° ENE
Cosmos 2034 Rocket 4.0 05:25:23 10° N 05:31:38 89° E 05:37:47 10° S
SKYMED 2 3.6 05:27:38 10° S 05:31:53 57° W 05:36:10 10° NNW
Shenzhou-11 Module 1.9 05:40:09 13° WSW 05:42:45 72° NNW 05:45:46 10° ENE
Cosmos 1484 Rocket 4.2 05:40:57 10° NNE 05:44:47 43° E 05:48:34 10° S
Cosmos 2208 Rocket 4.1 05:39:49 10° SSW 05:45:01 83° ESE 05:50:13 10° NNE
Tiangong 2 2.4 05:46:14 10° SW 05:49:16 41° SE 05:52:20 10° ENE
SMAP 4.1 05:48:52 10° NNE 05:53:24 50° E 05:57:54 10° S
Lacrosse 4 Rocket 2.3 05:50:01 10° WSW 05:53:50 29° WNW 05:57:37 10° N
Cosmos 1777 Rocket 4.4 05:49:54 10° NNW 05:54:50 44° WSW 05:59:43 10° S
Cosmos 1570 Rocket 4.0 05:50:11 10° SSW 05:55:27 69° WNW 06:00:48 10° NNE
Cosmos 2346 Rocket 4.4 05:50:28 10° S 05:56:30 87° W 06:02:35 10° N
Meteor 1-27 Rocket 4.1 05:52:37 10° NNW 05:58:05 44° W 06:03:24 10° SSW
Cosmos 371 Rocket 3.2 05:54:57 10° SSW 05:59:46 72° WNW 06:04:36 10° NNE
CZ-4 R/B 2.7 05:58:09 10° NNE 06:01:59 45° E 06:05:53 10° S
Cosmos 2369 Rocket 3.0 05:58:38 10° NW 06:03:24 29° WSW 06:08:10 10° SSW
ATLAS 2AS CENTAUR R/B 3.9 05:56:05 10° NNW 06:03:36 45° NE 06:10:31 10° ESE
PSLV R/B 4.1 06:01:43 10° NW 06:04:38 35° NNE 06:07:36 10° E
Cosmos 1818 4.1 05:59:57 10° NNW 06:05:21 61° ENE 06:10:42 10° SE
Cosmos 405 Rocket 4.5 06:05:01 10° WNW 06:06:54 13° W 06:08:48 10° WSW
Okean 3 3.7 06:02:51 10° N 06:07:05 74° E 06:11:19 10° S
Cosmos 468 Rocket 4.2 06:02:09 10° SSW 06:07:26 81° ESE 06:12:43 10° NNE
Tsikada Rocket 4.3 06:06:15 10° SSW 06:12:13 45° W 06:18:08 10° N
Meteor 1-25 Rocket 4.5 06:06:44 10° S 06:12:25 81° E 06:18:14 10° N
